Location: Bühlhof
(48.7849°N, 8.6361°E)
Time: 23:58:13
(UTC+00:00)

Meteor 2-19 Rocket - Pass Details

Date: 19 January 2026
Orbit: 935 x 959 km, 82.5° (Epoch: 9 February)

Event Time Altitude Azimuth Distance (km) Brightness Sun altitude
Rises 17:57:05 0° 175° (S) 3,616 7.5 -18.4°
Reaches altitude 10° 17:59:36 10° 172° (S) 2,672 6.8 -18.8°
Maximum altitude 18:05:35 60° 94° (E) 1,082 4.4 -19.8°
Drops below altitude 10° 18:11:34 10° 16° (NNE) 2,673 6.6 -20.8°
Sets 18:14:05 0° 13° (NNE) 3,619 7.3 -21.2°
